SCP
0 0 0 0 0 0 0 0 0 0 0 0 0 0 0 0 0 1 1 1 1 1 1 2 2 3 4 5 6 6 5 5 5 4 3 3 3 2 2 2 1 1 1 1 1 1 1 1 1
0 0 0 0 0 0 0 0 0 0 0 0 0 0 0 0 1 1 1 1 1 1 1 1 2 3 4 5 5 5 5 5 5 4 4 4 3 3 3 2 2 2 1 1 1 1 1 1 1
0 0 0 0 0 0 0 0 0 0 0 0 0 0 0 0 1 1 1 1 2 1 1 1 2 2 3 4 4 4 5 5 5 5 5 5 4 4 4 3 3 2 2 2 1 1 1 1 1
1 1 0 0 0 0 0 0 0 0 0 0 0 0 0 0 1 1 1 1 2 1 1 1 1 2 2 3 3 4 4 4 5 5 5 5 5 5 4 4 3 3 2 2 2 1 1 1 1
1 1 0 0 0 0 0 0 0 0 0 0 0 0 0 0 0 1 1 1 1 2 1 1 2 2 2 2 3 3 3 3 4 5 5 5 5 5 4 4 3 3 2 2 2 1 1 1 1
1 0 0 0 0 0 0 0 0 0 0 0 0 0 0 0 0 1 1 1 1 2 2 1 1 2 2 2 2 2 2 2 3 4 4 5 5 4 4 3 3 2 2 2 2 2 2 1 1
0 0 0 0 0 0 0 0 0 0 0 0 0 0 0 0 1 1 1 1 1 1 1 1 1 2 2 2 1 1 1 1 2 2 3 3 3 3 3 2 2 2 2 2 1 1 1 1 1
0 0 0 0 0 0 0 0 0 0 0 0 0 1 1 1 1 1 1 1 1 1 1 1 1 2 2 1 1 1 1 1 1 1 2 2 2 1 1 1 1 1 1 1 1 1 1 1 1
0 0 0 0 0 0 0 0 0 0 0 0 0 0 1 1 1 1 1 1 1 1 1 1 1 1 1 1 1 1 1 1 1 1 1 1 1 1 0 0 1 1 1 1 1 1 1 1 1
0 0 0 0 0 0 0 0 0 0 0 0 0 0 1 1 1 1 1 1 1 1 1 1 1 1 1 1 1 1 1 1 1 1 1 1 1 0 0 0 0 0 0 0 0 0 1 1 1
0 0 0 0 0 0 0 0 0 0 0 0 0 0 0 1 1 1 1 1 1 1 1 1 1 1 1 1 2 2 1 1 1 1 1 1 1 0 0 0 0 0 0 0 0 0 0 1 1
0 0 0 0 0 0 0 0 0 0 0 0 0 0 0 0 0 0 1 1 1 1 1 1 1 1 1 1 2 2 1 1 1 1 1 1 1 0 0 0 0 0 0 0 0 0 0 1 1
0 0 0 0 0 0 0 0 0 0 0 0 0 0 0 0 0 0 1 1 1 1 1 1 1 1 1 1 1 1 1 1 1 1 1 1 1 1 0 0 0 0 0 0 0 0 0 1 1
0 0 0 0 0 0 0 0 0 0 0 0 0 0 0 0 0 0 0 1 1 1 1 1 1 1 1 1 1 1 1 1 1 1 1 1 1 1 1 1 1 1 1 1 0 0 0 1 1
0 0 0 0 0 0 0 0 0 0 0 0 0 0 0 0 0 0 0 1 1 1 1 1 1 1 1 1 1 1 1 1 1 1 1 1 1 1 1 1 1 1 1 0 0 0 0 0 0
0 0 0 0 0 0 0 0 0 0 0 0 0 0 0 0 0 0 0 1 1 1 1 1 1 1 1 1 1 1 1 1 1 1 1 1 1 1 1 1 1 1 0 0 0 0 0 0 0
0 0 0 0 0 0 0 0 0 0 0 0 0 0 0 0 0 0 0 1 1 1 1 1 1 1 1 1 1 1 1 1 1 1 1 1 1 1 1 1 0 0 0 0 0 0 0 0 0
0 0 0 0 0 0 0 0 0 0 0 0 0 0 0 0 0 0 0 0 1 1 1 1 1 1 1 1 1 1 1 1 1 1 1 1 1 1 1 1 0 0 0 0 0 0 0 0 0
0 0 0 0 0 0 0 0 0 0 0 0 0 0 0 0 0 0 0 0 0 1 1 1 1 1 1 1 1 1 1 1 1 1 1 1 1 1 1 1 0 0 0 0 0 0 0 0 0
0 0 0 0 0 0 0 0 0 0 0 0 0 0 0 0 0 0 0 0 0 1 1 1 1 1 0 1 1 1 1 1 1 1 1 1 1 1 1 1 1 0 0 0 0 0 0 0 0
0 0 0 0 0 0 0 0 0 0 0 0 0 0 0 0 0 0 0 0 0 1 1 1 1 1 1 0 0 1 1 1 1 1 1 1 1 1 1 1 1 0 0 0 0 0 0 0 0
0 0 0 0 0 0 0 0 0 0 0 0 0 0 0 0 0 0 0 0 0 1 1 1 1 1 1 0 0 0 1 1 1 1 1 1 1 1 1 1 1 1 0 0 0 0 0 0 0
0 0 0 0 0 0 0 0 0 0 0 0 0 0 0 0 0 0 0 0 0 1 1 1 1 1 1 0 0 0 0 0 0 1 1 1 1 1 1 1 1 1 1 0 0 0 0 0 0
0 0 0 0 0 0 0 0 0 0 0 0 0 0 0 0 0 0 0 0 0 0 1 1 1 1 1 0 0 0 0 0 0 0 1 1 1 1 1 1 1 1 1 1 0 0 0 0 0
0 0 0 0 0 0 0 0 0 0 0 0 0 0 0 0 0 0 0 0 0 0 1 1 1 1 1 1 0 0 0 0 0 0 0 1 1 1 1 1 1 1 1 1 1 0 0 0 0
0 0 0 0 0 0 0 0 0 0 0 0 0 0 0 0 0 0 0 0 0 0 1 1 1 1 1 1 0 0 0 0 0 0 0 0 0 1 1 1 1 1 1 1 1 1 0 0 0
0 0 0 0 0 0 0 0 0 0 0 0 0 0 0 0 0 0 0 0 0 0 1 1 1 1 0 0 0 0 0 0 0 0 0 0 0 0 0 1 1 1 1 1 1 1 1 0 0
0 0 0 0 0 0 0 0 0 0 0 0 0 0 0 0 0 0 0 0 0 0 0 0 1 0 0 0 0 0 0 0 0 0 0 0 0 0 0 0 0 1 1 1 1 1 1 1 0
0 0 0 0 0 0 0 0 0 0 0 0 0 0 0 0 0 0 0 0 0 0 0 0 0 0 0 0 0 0 0 0 0 0 0 0 0 0 0 0 0 0 0 1 1 1 1 1 0
0 0 0 0 0 0 0 0 0 0 0 0 0 0 0 0 0 0 0 0 0 0 0 0 0 0 0 0 0 0 0 0 0 0 0 0 0 0 0 0 0 0 0 1 1 1 1 1 0
Wind_Speed
11 10 7 3 4 5 7 4 2 1 2 4 5 4 4 5 4 5 3 4 5 7 9 7 7 8 9 9 9 8 8 8 8 8 9 9 9 9 9 9 10 10 10 11 11 11 11 11 11
10 7 4 4 5 6 5 3 2 1 3 3 2 2 1 3 5 6 4 4 4 7 8 7 7 8 9 9 9 8 8 7 8 8 8 8 8 9 9 9 9 10 10 10 10 10 10 10 11
10 7 4 4 5 5 3 2 4 3 3 1 1 2 2 3 5 5 4 4 5 6 7 7 8 8 9 9 8 8 7 7 7 8 7 8 8 8 8 8 9 9 9 9 10 10 10 10 10
5 4 4 5 7 4 4 1 2 2 2 2 2 1 3 5 4 5 4 4 5 6 6 8 8 9 9 9 8 8 7 7 7 7 7 7 7 7 7 7 8 8 9 9 9 9 9 9 9
4 4 5 6 8 5 3 1 1 1 1 1 2 1 3 4 6 5 3 4 5 5 6 8 7 8 9 8 8 8 7 7 7 7 7 6 6 6 6 7 7 8 8 8 8 8 8 8 8
4 3 5 8 7 5 4 2 2 2 1 1 1 1 3 4 5 3 3 3 5 5 6 7 7 7 7 8 8 7 6 6 6 7 6 6 5 5 6 6 7 7 8 8 7 7 7 7 7
4 4 7 8 6 5 3 1 3 2 2 1 1 0 3 4 4 4 3 4 4 5 5 5 5 5 6 7 7 7 6 6 6 6 6 6 6 6 6 6 6 7 7 7 6 6 6 6 6
4 4 7 8 7 5 1 1 1 2 2 2 2 0 2 4 4 4 3 4 4 4 4 4 4 4 4 5 6 7 7 6 6 6 6 6 6 6 7 6 6 6 6 6 6 5 5 6 5
4 5 7 7 5 3 1 1 0 2 1 1 1 3 4 6 4 3 3 3 3 3 3 4 4 3 3 4 5 6 6 5 5 5 5 5 3 3 4 5 6 5 5 5 5 5 5 4 4
4 6 8 5 3 2 1 2 1 1 2 2 0 2 4 5 4 3 2 3 3 2 2 2 3 3 3 3 4 3 4 3 3 3 3 3 2 2 3 5 6 6 5 5 5 4 4 2 1
4 6 5 5 4 3 3 3 3 3 4 3 2 2 3 3 2 2 1 1 2 3 2 2 2 3 3 2 2 2 2 2 2 3 3 2 2 2 2 2 3 3 3 2 3 2 1 1 1
6 6 6 5 4 3 3 3 4 5 4 2 0 2 3 3 2 2 1 1 1 2 2 1 2 2 2 3 2 2 2 2 2 2 3 2 2 2 2 1 2 1 1 1 1 1 1 1 1
8 7 5 5 3 3 3 4 5 6 4 2 0 1 2 3 3 2 1 1 2 2 2 2 1 2 2 2 2 3 2 2 2 2 2 2 2 2 2 1 1 1 1 2 1 1 1 1 1
3 4 6 6 5 4 4 5 6 6 4 3 3 3 3 3 2 2 2 1 1 2 2 2 2 2 2 2 2 2 2 2 3 3 2 3 2 2 2 2 2 1 1 1 1 1 1 1 1
4 5 7 6 6 4 3 7 8 6 5 5 4 4 3 2 2 2 2 2 2 2 1 2 2 2 2 2 2 2 2 2 2 3 3 3 2 2 2 2 2 1 1 1 1 2 1 1 1
5 6 6 5 6 5 5 9 5 4 5 6 5 4 3 2 2 2 2 1 1 2 2 2 1 2 2 2 2 2 2 3 2 2 3 3 3 3 2 2 2 1 1 1 1 1 1 1 1
5 5 6 5 5 5 7 8 4 3 5 6 5 5 4 3 2 1 1 1 1 2 2 2 2 2 2 2 2 1 2 3 2 2 3 3 3 3 2 2 2 2 1 1 1 1 1 1 1
4 6 7 6 4 5 7 8 5 4 5 6 5 5 5 4 3 2 2 1 1 1 1 1 1 2 2 2 2 1 1 2 2 2 3 4 3 3 2 2 2 2 2 1 1 1 1 1 1
7 8 8 7 3 5 9 10 9 7 7 7 5 4 4 3 2 2 2 2 2 2 1 1 1 2 2 2 2 2 2 2 2 2 3 4 3 3 3 2 2 2 2 2 2 1 1 1 1
9 9 8 5 2 5 8 11 9 7 7 6 4 3 3 2 1 2 3 2 2 1 1 1 1 1 1 2 2 2 2 2 2 2 3 3 3 3 3 3 3 2 2 2 2 1 1 1 1
8 8 7 6 5 6 7 8 8 5 6 5 4 3 3 2 2 2 2 2 1 1 0 0 0 0 1 1 1 1 1 1 1 2 3 3 3 4 3 3 3 2 2 2 2 2 2 2 1
8 5 6 6 5 5 4 6 6 5 6 6 5 5 3 2 2 2 2 2 1 1 1 0 0 0 0 1 2 3 2 2 2 2 2 2 3 3 3 3 3 3 2 2 2 2 2 2 2
5 4 5 7 6 6 6 6 5 4 4 6 5 4 3 3 3 2 2 2 2 2 1 1 1 1 0 1 2 2 2 2 1 2 3 3 3 3 3 3 3 2 2 2 3 2 2 2 2
4 3 5 5 3 7 7 7 5 4 5 4 4 4 3 3 3 2 2 3 2 2 2 1 1 2 2 1 1 2 2 2 2 2 2 2 2 2 3 3 3 3 2 2 2 2 3 2 2
1 1 2 2 4 7 4 5 6 2 1 2 4 3 3 3 2 2 2 2 1 1 1 1 1 1 2 2 1 1 1 2 3 3 3 2 2 2 3 3 3 3 3 3 3 3 3 3 3
4 4 3 4 4 3 2 6 3 2 3 3 3 3 2 2 2 2 1 1 1 1 1 1 1 1 1 1 1 1 0 1 1 1 1 2 2 2 2 3 3 3 3 3 3 3 3 3 3
3 5 3 4 4 4 5 4 2 1 1 2 2 2 2 1 2 2 1 1 1 0 0 1 1 1 1 1 1 1 0 1 0 0 1 1 1 1 1 2 2 3 3 3 3 3 3 3 3
3 2 2 3 4 6 6 6 4 3 2 2 1 1 1 2 2 2 2 2 1 1 1 1 1 0 1 1 1 1 1 1 0 1 0 1 2 1 1 1 2 2 2 2 2 2 2 2 2
3 3 4 4 4 4 5 4 2 1 2 1 1 1 1 2 2 1 1 1 1 1 1 1 1 2 2 1 1 2 2 1 1 1 1 0 1 2 2 2 2 2 2 2 2 2 2 3 2
3 4 3 4 5 4 5 5 2 3 3 3 2 2 2 1 2 1 1 1 1 1 1 2 2 2 2 2 2 2 2 2 1 1 1 1 0 1 2 2 2 2 2 2 3 3 2 3 3
Wind_Direction
292 267 255 252 239 232 240 238 244 82 55 37 16 5 14 12 26 93 109 75 84 109 122 131 115 119 119 115 112 112 113 118 121 121 118 113 108 106 105 103 97 94 95 94 92 89 86 84 83
291 277 256 239 244 239 234 216 211 52 77 70 22 345 34 52 67 94 97 80 94 110 123 133 118 119 121 119 118 118 118 119 119 119 118 116 113 111 110 106 101 97 95 94 92 89 88 86 83
275 262 254 239 238 247 255 68 87 87 93 117 95 357 15 57 64 78 92 105 103 107 119 124 121 123 124 122 120 120 123 127 124 120 117 116 115 117 111 109 107 102 98 95 93 91 90 88 84
265 233 239 245 245 254 271 323 73 75 109 119 113 84 76 54 53 71 97 104 107 106 115 122 127 127 128 127 126 124 124 128 126 124 120 116 115 114 114 109 109 108 104 99 97 94 92 89 85
243 244 232 237 240 248 276 297 229 268 214 133 136 156 98 79 81 86 101 105 105 107 111 124 125 128 131 132 131 128 129 128 126 122 119 116 111 113 117 116 114 113 110 106 101 98 95 93 88
248 240 238 238 234 224 240 266 242 249 263 117 146 216 107 105 100 104 100 102 104 107 113 125 122 121 130 133 131 132 131 128 125 119 113 114 114 117 115 118 117 115 114 109 106 103 98 95 91
257 249 250 254 252 239 217 244 266 259 275 4 349 202 119 115 105 105 104 100 98 101 110 125 136 137 130 132 134 133 127 122 121 117 111 106 101 100 100 100 107 111 110 110 108 105 101 98 95
273 267 254 248 249 250 173 175 303 320 313 27 1 254 119 121 107 102 102 99 98 102 113 124 132 141 142 135 128 125 123 120 118 112 105 102 100 95 92 96 99 110 110 111 111 107 104 102 96
265 246 246 250 255 260 158 198 301 23 2 11 23 32 67 107 106 108 109 102 102 100 113 127 133 138 143 147 142 137 133 130 127 122 114 110 106 101 98 98 102 109 114 115 115 111 108 102 99
235 241 249 275 301 302 315 313 293 177 256 261 223 90 97 108 115 123 132 140 134 128 121 120 134 142 146 151 147 149 150 147 146 136 136 134 122 113 112 102 101 106 110 118 120 114 110 108 119
233 244 266 289 319 325 307 308 308 255 248 246 240 160 127 110 115 129 149 159 153 144 141 133 137 142 144 146 144 141 144 144 148 137 144 143 129 116 109 111 106 111 116 116 116 117 136 123 102
239 259 271 283 320 318 292 289 287 273 272 320 246 145 151 158 174 186 187 172 135 130 153 136 137 144 152 149 150 143 141 142 141 142 140 133 127 122 122 120 123 123 124 122 130 150 130 106 95
243 248 267 280 282 278 282 268 273 269 270 296 74 154 188 191 187 182 173 156 152 165 174 158 143 157 168 158 158 148 147 150 143 139 148 134 131 133 128 130 121 124 118 137 150 138 114 105 102
265 269 267 267 272 268 265 271 265 257 248 235 213 209 210 212 196 170 163 176 193 191 181 166 165 165 171 166 159 155 150 150 143 145 147 141 133 131 132 140 140 143 129 128 136 137 130 127 100
255 263 264 244 237 232 255 264 244 245 234 236 231 223 218 209 190 176 180 183 192 201 179 166 181 173 175 172 174 162 155 144 151 151 148 142 139 136 139 140 141 148 142 129 118 120 118 115 97
241 237 243 225 219 207 225 255 244 215 224 235 234 231 225 222 195 170 154 155 168 180 175 174 177 171 183 175 181 168 158 150 156 147 147 145 140 137 137 139 145 137 129 133 140 142 128 127 142
220 246 247 245 219 208 220 252 238 214 226 236 232 226 217 213 208 167 142 153 172 173 165 160 162 163 172 176 169 170 158 156 160 155 149 152 151 150 144 147 145 138 127 121 142 145 149 149 160
240 248 251 244 216 224 236 252 250 237 235 239 236 230 216 213 197 160 137 129 112 117 127 130 150 149 153 154 156 163 164 162 166 162 157 157 159 159 152 149 150 146 143 141 139 154 131 139 156
271 269 270 273 257 239 239 249 248 238 242 243 233 225 215 201 149 122 109 90 82 73 86 113 124 147 145 157 169 176 195 189 170 160 164 163 161 165 157 150 152 157 163 170 163 144 135 125 112
261 268 273 282 280 274 263 257 252 228 230 230 225 219 215 187 159 140 122 103 89 75 61 85 112 145 165 177 184 181 183 185 156 149 159 166 161 162 164 160 163 168 165 165 163 142 140 145 122
254 255 267 282 298 261 269 265 238 224 212 223 225 222 222 193 160 134 108 87 87 68 354 343 21 195 188 162 148 137 138 139 155 167 173 175 169 163 160 161 160 166 167 180 182 170 162 173 197
261 268 277 280 277 262 238 273 241 219 210 212 209 205 197 151 130 126 123 102 65 15 358 10 358 290 180 153 162 167 176 186 194 172 164 164 169 161 157 160 162 167 169 173 184 179 176 170 190
274 309 278 265 265 273 246 255 260 206 222 218 200 182 164 140 131 119 116 116 90 62 33 13 12 351 360 185 187 191 187 188 156 155 162 171 173 169 165 165 166 173 175 177 182 174 173 179 188
289 298 272 253 241 250 227 230 258 221 216 198 173 158 148 142 133 116 91 81 71 64 43 18 16 7 3 343 241 196 192 184 167 173 181 176 173 175 173 170 174 184 183 182 186 182 182 184 187
248 261 270 241 222 240 207 220 243 212 143 149 152 152 147 135 127 122 110 105 88 64 39 11 25 6 356 355 345 291 214 204 190 185 185 174 176 187 188 186 189 191 192 193 187 186 191 190 191
237 223 222 240 247 273 227 228 234 117 92 83 99 116 125 120 120 120 122 120 118 80 26 14 24 14 360 350 335 350 326 225 197 173 170 179 188 196 186 198 205 197 192 194 192 196 200 200 199
234 230 255 280 286 273 248 245 238 166 115 115 115 99 110 126 112 99 95 76 64 43 6 62 25 16 358 342 341 347 0 352 334 174 168 169 170 180 181 198 212 201 194 194 192 198 203 205 207
266 263 234 229 242 254 254 239 238 203 213 173 133 102 92 96 89 83 81 51 28 8 3 33 32 30 347 354 349 356 348 346 11 49 162 167 164 152 166 193 203 199 189 189 188 185 194 199 212
232 243 232 238 247 249 264 255 345 205 152 123 118 84 61 104 103 87 78 71 50 22 11 23 18 16 8 359 7 24 15 11 35 52 30 160 164 156 173 190 195 191 186 184 183 189 189 193 208
256 239 224 234 251 249 271 274 12 50 63 66 52 39 35 70 91 83 71 46 39 28 13 7 13 19 5 358 11 26 22 23 32 32 3 12 54 164 171 170 173 182 190 191 182 189 193 195 205